Flag for Switzerland Weather past 2 weeks in Pully, Vaud, Switzerland

Now
44 °F

Quite cool.


Feels Like: 40 °F
Forecast: 48 / 53 °F
Wind: 7 mph from Southeast

Location: Aigle

Current Time: Mar 28, 2015 at 10:44:07 AM

Latest Report: Mar 28, 2015 at 9:00 AM


Visibility: N/A

Pressure: 30.27 "Hg

Humidity: 60%

Dew point: 31 °F

Location of PullyLocation

Historic Weather in Pully — Graph

°F

Pully temperature yesterday

Maximum temperature yesterday: 53 °F (at 4:00 PM)
Minimum temperature yesterday: 39 °F (at 11:00 PM)
Average temperature yesterday: 46 °F

Past Weeks' High & Low Weather Summary

 TemperatureHumidityPressure
High60 °F (Mar 19, 4:00 PM)97% (Mar 15, 5:00 AM)30.32 "Hg (Mar 15, 5:00 AM)
Low29 °F (Mar 15, 5:00 AM)41% (Mar 15, 9:00 PM)29.59 "Hg (Mar 25, 1:00 PM)
Average45 °F75%30.06 "Hg
* Reported Mar 13 9:00 AM — Mar 28 9:00 AM, Pully, Weather by CustomWeather, © 2015

Note: Actual official high and low records may vary slightly from our data, if they occured in-between our weather recording intervals... More about our weather records

Advertising

Pully weather history for previous 24 hours

 ConditionsComfort  
Time TempWeatherWind HumidityBarometerVisibility
9:00 AM
Sat, Mar 28
44 °FQuite cool.7 mph60%30.27 "HgN/A
8:00 AM40 °FQuite cool.3 mph70%30.29 "HgN/A
7:00 AM35 °FSunny.6 mph81%30.30 "Hg19 mi
6:00 AM33 °FChilly.6 mph88%30.31 "HgN/A
5:00 AM33 °FChilly.3 mph89%30.31 "HgN/A
3:00 AM33 °FChilly.2 mph91%30.32 "HgN/A
2:00 AM35 °FChilly.2 mph89%30.32 "HgN/A
1:00 AM38 °FChilly.3 mph79%30.31 "HgN/A
12:00 AM38 °FChilly.6 mph80%30.31 "HgN/A
11:00 PM
Fri, Mar 27
39 °FChilly.2 mph78%30.32 "HgN/A
9:00 PM41 °FQuite cool.3 mph77%30.29 "HgN/A
8:00 PM42 °FQuite cool.2 mph74%30.27 "HgN/A
7:00 PM46 °FPassing clouds.2 mph68%30.23 "Hg16 mi
6:00 PM50 °FCool.3 mph50%30.21 "HgN/A
5:00 PM52 °FCool.7 mph47%30.19 "HgN/A
4:00 PM53 °FOvercast.9 mph42%30.17 "Hg14 mi
3:00 PM52 °FCool.9 mph50%30.17 "HgN/A
2:00 PM51 °FCool.8 mph49%30.17 "HgN/A
1:00 PM52 °FPartly sunny.6 mph49%30.16 "Hg10 mi
12:00 PM49 °FCool.3 mph52%30.18 "HgN/A
11:00 AM48 °FCool.10 mph67%30.16 "HgN/A
10:00 AM46 °FFog.10 mph79%30.16 "Hg6 mi
Weather by CustomWeather, © 2015

See weather overviewHow to use our weather pages